Location: ????????
(55.6189°N, 38.3031°E)
Time: 04:42:09
(UTC+00:00)

Cosmos 1898 Rocket - Pass Details

Date: 15 November 2019
Orbit: 753 x 785 km, 74.0° (Epoch: 15 December)

Event Time Altitude Azimuth Distance (km) Brightness Sun altitude
Rises 03:11:37 0° 214° (SSW) 3,220 6.5 -15.0°
Reaches altitude 10° 03:13:59 10° 216° (SW) 2,303 5.7 -14.7°
Maximum altitude 03:19:12 71° 301° (WNW) 820 3.4 -14.0°
Drops below altitude 10° 03:24:31 10° 26° (NNE) 2,339 6.2 -13.3°
Sets 03:26:56 0° 28° (NNE) 3,275 7.0 -12.9°
